カタログに戻る

OPS 2366

TRANSIT 14

運用中ナビゲーションPO
NORAD 2401·PAYLOAD·🇺🇸 United States

打ち上げ Aug 18, 1966 から Vandenberg Space Force Base

Loading…

次のパス (今後24時間)

TLE

最新Source: Space-Track

元期: Sep 14, 2026, 08:36 UTC

1 02401U 66076A   26257.35848161  .00000081  00000-0  10136-3 0  9993
2 02401  88.8454  55.3414 0033895  48.5129 330.4139 13.53970196963167

AllMySatでOPS 2366をリアルタイム追跡

Download on the App Store